Weather History for KPEO - July, 2013

Change the Weather History Date:

Friday, July 19, 2013

  Actual Average (KITH) Record (KITH)
Temperature  
Mean Temperature 82 °F -  
Max Temperature 91 °F 83 °F 97 °F (1934)
Min Temperature 71 °F 59 °F 46 °F (1956)
Cooling Degree Days 17    
Growing Degree Days 32 (Base 50)    
Moisture  
Dew Point 69 °F    
Average Humidity 68    
Maximum Humidity 87    
Minimum Humidity 47    
Precipitation  
Precipitation 0.10 in - - ()
Sea Level Pressure  
Sea Level Pressure 29.86 in    
Wind  
Wind Speed 9 mph (SW)    
Max Wind Speed 17 mph    
Max Gust Speed 24 mph    
Visibility 10 miles    
Events Rain , Thunderstorm    
Averages and records for this station are not official NWS values.
T = Trace of Precipitation, MM = Missing Value Source: NWS Daily Summary

Daily Weather History Graph

Daily Weather History Graph

Search for Another Location

Airport or City:

Trip Planner

Search our weather history database for the weather conditions in past years. The results will help you decide how hot, cold, wet, or windy it might be!

Date:

Astronomy

Jul. 19, 2013 Rise Set
Actual Time 5:47 AM EDT 8:41 PM EDT
Civil Twilight 5:14 AM EDT 9:14 PM EDT
Nautical Twilight 4:31 AM EDT 9:56 PM EDT
Astronomical Twilight 3:42 AM EDT 10:45 PM EDT
Moon 5:41 PM EDT (7/19) 2:27 AM EDT (7/19)
Length of Visible Light 16h 00m
Length of Day
14h 53m
Waxing Gibbous, 86% of the Moon is Illuminated
Jul 19
Waxing Gibbous
Jul 22
Full
Jul 29
Last Quarter
Aug 6
New
Aug 14
First Quarter

Hourly Weather History & Observations

Time (EDT) Temp. Heat Index Dew Point Humidity Pressure Visibility Wind Dir Wind Speed Gust Speed Precip Events Conditions
12:53 AM 75.0 °F - 70.0 °F 84% 29.97 in 10.0 mi SW 5.8 mph - N/A   Clear
1:53 AM 73.9 °F - 70.0 °F 87% 29.97 in 10.0 mi SSW 8.1 mph - N/A   Clear
2:53 AM 75.0 °F - 69.1 °F 82% 29.95 in 10.0 mi South 8.1 mph - N/A   Clear
3:53 AM 73.9 °F - 69.1 °F 85% 29.93 in 10.0 mi South 10.4 mph - N/A   Clear
4:53 AM 73.0 °F - 69.1 °F 87% 29.92 in 10.0 mi South 4.6 mph - N/A   Clear
5:53 AM 73.9 °F - 68.0 °F 82% 29.91 in 10.0 mi SSW 11.5 mph 17.3 mph N/A   Clear
6:53 AM 75.0 °F - 68.0 °F 79% 29.91 in 10.0 mi SSW 10.4 mph - N/A   Clear
7:53 AM 78.1 °F - 70.0 °F 76% 29.92 in 9.0 mi SW 8.1 mph - N/A   Clear
8:53 AM 81.0 °F 84.9 °F 71.1 °F 72% 29.91 in 9.0 mi SSW 10.4 mph - N/A   Clear
9:53 AM 84.9 °F 91.4 °F 73.0 °F 67% 29.90 in 10.0 mi SW 11.5 mph 16.1 mph N/A   Clear
10:53 AM 87.1 °F 92.8 °F 71.1 °F 59% 29.89 in 10.0 mi WSW 13.8 mph 24.2 mph N/A   Partly Cloudy
11:53 AM 89.1 °F 94.1 °F 70.0 °F 53% 29.87 in 10.0 mi WSW 17.3 mph 24.2 mph N/A   Clear
12:53 PM 89.1 °F 93.7 °F 69.1 °F 52% 29.86 in 10.0 mi West 12.7 mph 21.9 mph N/A   Scattered Clouds
1:53 PM 91.0 °F 95.6 °F 69.1 °F 48% 29.82 in 10.0 mi WSW 10.4 mph 21.9 mph N/A   Clear
2:53 PM 91.0 °F 95.2 °F 68.0 °F 47% 29.80 in 10.0 mi WSW 12.7 mph 23.0 mph N/A   Scattered Clouds
3:53 PM 91.0 °F 95.6 °F 69.1 °F 48% 29.78 in 10.0 mi West 11.5 mph 20.7 mph N/A   Clear
4:53 PM 91.0 °F 95.6 °F 69.1 °F 48% 29.77 in 10.0 mi WSW 11.5 mph - N/A   Clear
5:53 PM 90.0 °F 95.4 °F 70.0 °F 52% 29.75 in 10.0 mi WSW 11.5 mph - N/A   Clear
6:53 PM 89.1 °F 95.0 °F 71.1 °F 55% 29.75 in 10.0 mi WSW 6.9 mph 16.1 mph N/A   Clear
7:53 PM 86.0 °F 89.4 °F 68.0 °F 55% 29.81 in 10.0 mi WSW 8.1 mph - N/A   Clear
8:53 PM 84.0 °F 87.0 °F 68.0 °F 58% 29.79 in 10.0 mi WSW 6.9 mph - N/A   Partly Cloudy
9:53 PM 77.0 °F - 63.0 °F 62% 29.81 in 10.0 mi Variable 5.8 mph - N/A   Overcast
10:20 PM 75.2 °F - 64.4 °F 69% 29.82 in 10.0 mi NW 6.9 mph 16.1 mph 0.00 in Rain , Thunderstorm Light Thunderstorms and Rain
10:53 PM 73.0 °F - 66.9 °F 81% 29.82 in 8.0 mi South 5.8 mph - 0.02 in Rain , Thunderstorm Light Thunderstorms and Rain
11:13 PM 73.4 °F - 66.2 °F 78% 29.84 in 10.0 mi SW 4.6 mph - 0.01 in Rain Light Rain
11:28 PM 73.4 °F - 66.2 °F 78% 29.86 in 10.0 mi West 13.8 mph 24.2 mph 0.01 in Rain , Thunderstorm Light Rain
11:53 PM 71.1 °F - 66.9 °F 87% 29.84 in 10.0 mi West 8.1 mph 19.6 mph 0.08 in Thunderstorm Overcast